Vertical_Velocity
-3 -4 -3 1 -3 -1 0 0 -2 -0 -1 -0 -0 0 -2 0 0 -1 -2 -1 -0 -0 -0 0 0 -1 0 1 -1 1 -3 -0 -1 -1 0 -0 1 -1 2 0 -2 2 0
2 -2 -2 -0 -0 -2 1 2 -2 1 2 1 0 -0 -2 -1 -2 -1 -0 -3 -2 -2 0 -0 -1 -0 1 -1 1 1 -2 -1 -1 -1 0 0 1 -1 2 1 1 0 -1
-2 5 1 -2 1 -1 -1 1 0 0 0 0 1 1 -1 1 -1 -0 1 5 2 -0 0 1 2 0 0 -0 -1 -0 0 -0 -2 2 -1 -0 -1 1 -3 1 2 -3 2
-2 -2 2 -3 1 -1 -1 -1 3 2 1 -2 -1 0 -0 1 0 -2 -1 6 0 3 -2 3 1 1 0 0 -1 -0 -1 -1 -0 -0 -0 -0 -1 0 1 0 -2 0 2
0 -2 0 -1 -1 1 -1 -2 0 -1 1 -0 -1 -1 -1 1 0 -2 2 3 0 1 -1 1 0 0 1 -1 0 -1 -1 -2 -1 -0 0 -1 -0 1 -2 -1 -1 -0 -2
2 -2 -1 0 0 -0 -0 -1 1 2 1 -2 1 0 -2 1 1 2 -2 4 -3 0 -1 -1 1 -0 1 1 1 1 0 1 -1 -2 -1 -1 1 -1 -1 1 -1 -0 0
1 1 -3 0 4 1 -2 -2 -0 1 4 -1 -2 0 0 1 -2 -1 0 -3 -0 -1 -0 -1 2 -0 -0 1 1 -1 1 2 -2 -1 -1 -1 -0 -1 1 -0 -0 -0 -1
1 5 -0 1 3 2 1 0 -0 0 1 1 1 -0 1 1 -2 0 0 2 -1 -1 1 -1 0 -1 2 2 1 1 1 -2 0 1 1 0 -1 -1 -0 -1 1 2 -0
2 -4 2 1 1 2 1 -1 1 -2 3 -2 2 5 7 6 3 1 2 -2 3 -2 0 0 0 1 -1 -0 1 1 -0 -2 0 3 2 -1 -0 -0 -1 -0 -0 0 -0
3 0 0 0 -1 -1 -1 -1 -1 1 -1 -0 2 1 2 0 1 -2 3 -3 2 -1 0 0 0 2 -0 1 -1 -0 -0 5 -3 -1 2 1 -0 -1 0 -1 -1 0 1
-3 3 -3 1 -1 1 0 -2 2 -0 2 2 4 2 -3 1 -3 -5 -2 0 0 -1 -0 0 -1 0 1 1 1 2 0 -1 3 3 1 2 -0 -0 -1 1 -1 -2 -6
-4 -6 3 1 1 -2 -3 -0 -1 1 -1 1 1 -0 -2 -2 2 0 0 6 2 1 1 -0 0 -1 1 2 8 3 4 1 -1 -2 1 -0 3 0 -2 -0 -3 1 1
4 5 -6 1 4 1 -2 -3 -5 -2 -5 2 -6 3 3 1 -1 1 9 -2 -2 -1 -1 -1 0 -0 -1 -3 0 -5 -2 -5 1 -0 3 -3 7 -0 -3 -8 -2 1 1
-7 0 2 2 -1 1 -1 -5 -2 -6 0 -2 1 -2 -4 6 1 -0 -4 -0 -0 1 -1 -1 -0 -1 1 0 -1 -4 -0 -2 -2 2 -1 -1 2 2 11 -0 1 -2 -0
0 6 2 0 -6 1 -3 -1 -5 1 1 4 5 4 1 3 -0 -1 2 0 2 -0 -4 -1 0 -0 -0 -0 -0 -4 -3 -2 -4 -2 -6 -6 -10 -6 -5 7 6 1 1
5 4 -1 -3 3 -3 -0 -0 -1 1 1 3 0 6 -3 -3 3 -1 3 -1 1 -0 -2 -2 -1 -1 0 -3 1 -2 -4 -5 2 2 -5 -8 -10 3 2 3 4 10 10
-2 3 -3 3 7 -3 1 1 0 -1 1 2 1 0 1 -2 2 1 -1 -2 -0 -0 0 -3 1 -1 0 -1 -1 -1 -5 4 0 0 -1 -7 -6 -3 7 8 11 19 11
5 -2 3 -1 5 -1 3 -0 0 0 0 -0 2 6 -1 -0 -1 -1 -1 -0 -1 -1 1 1 -2 0 -2 -1 0 1 2 -4 0 -3 0 0 -2 5 0 26 1 2 8
5 5 3 -3 -3 -4 1 3 2 0 -0 -1 4 4 0 -1 -0 -2 -1 1 -0 -1 -1 1 -3 -0 0 -1 0 -1 -1 -2 -4 -3 0 3 2 -2 2 -5 -11 2 3
4 4 5 2 16 4 4 8 3 5 -1 3 8 -1 -1 1 -1 -2 0 0 1 0 -1 -2 1 -2 -3 -2 -1 -1 -0 2 1 2 1 3 -2 -7 -0 6 -3 -1 -2
0 6 5 3 10 3 -3 -1 8 -2 2 -0 -4 0 2 4 -2 -3 -2 -1 1 2 -0 -0 -1 1 0 -1 0 -2 -0 -0 -0 -0 0 0 0 -3 2 5 3 5 -4
1 2 -2 3 3 5 3 -6 12 1 -1 2 3 0 1 -1 0 -1 -1 -1 -3 -0 -4 -0 -1 1 -1 -2 1 0 -1 -1 -1 1 -0 -3 1 6 2 1 2 0 0
4 -0 3 2 -1 3 9 3 6 11 4 5 -5 -2 1 -0 -1 1 0 -0 0 -0 1 0 -1 -0 0 1 -3 -0 -2 -3 1 1 1 1 1 -1 -0 0 1 2 2
3 3 7 -0 3 4 -0 -1 8 -0 -13 -5 5 9 -2 0 0 0 -0 -0 2 2 -1 -0 0 -2 -1 -1 -1 -1 -2 1 -2 -1 -0 -0 0 0 0 -0 -1 -1 -0
1 -4 -0 -1 4 1 13 -0 13 9 7 10 -1 5 -0 -0 -1 0 -1 -0 0 -1 -3 -0 -1 1 -3 -1 -2 -0 -1 -2 -1 -0 1 1 0 0 0 -0 -0 -0 -0
3 -0 -0 2 0 -3 4 14 -1 12 2 1 -6 -2 -1 1 0 -1 -2 1 -0 1 -1 2 -1 -0 -2 -0 0 -2 -2 -2 -0 -1 -0 1 -0 -1 -0 -0 1 1 0
Height
3141 3144 3146 3148 3149 3150 3152 3154 3156 3158 3160 3162 3163 3164 3166 3167 3168 3170 3171 3172 3173 3174 3175 3176 3177 3178 3179 3180 3181 3182 3183 3183 3184 3185 3185 3185 3186 3186 3186 3187 3188 3188 3188
3140 3142 3145 3147 3148 3150 3152 3154 3156 3158 3160 3162 3164 3165 3167 3168 3170 3171 3173 3174 3175 3176 3178 3178 3180 3181 3181 3183 3183 3184 3186 3186 3187 3188 3188 3188 3189 3189 3189 3190 3191 3191 3191
3138 3141 3143 3146 3148 3150 3152 3154 3156 3158 3160 3162 3164 3166 3168 3169 3171 3173 3174 3176 3177 3178 3179 3180 3182 3183 3184 3186 3187 3188 3188 3189 3190 3190 3191 3191 3191 3192 3193 3193 3193 3193 3194
3136 3139 3142 3144 3147 3149 3151 3154 3156 3159 3161 3163 3165 3167 3168 3171 3172 3174 3175 3177 3178 3180 3181 3183 3184 3185 3186 3187 3189 3190 3191 3191 3191 3191 3192 3193 3194 3194 3194 3195 3196 3196 3196
3135 3137 3140 3143 3146 3148 3151 3153 3156 3158 3161 3163 3165 3167 3169 3171 3174 3175 3176 3179 3180 3182 3183 3184 3186 3187 3188 3189 3191 3192 3193 3194 3193 3193 3194 3194 3195 3196 3197 3197 3197 3198 3198
3133 3136 3139 3142 3145 3147 3150 3153 3155 3158 3161 3163 3165 3167 3170 3172 3173 3176 3178 3180 3181 3183 3184 3186 3187 3188 3189 3191 3192 3193 3194 3195 3196 3196 3196 3196 3197 3198 3198 3199 3200 3200 3200
3131 3135 3138 3140 3144 3147 3149 3152 3155 3158 3160 3163 3166 3168 3170 3172 3174 3176 3178 3180 3182 3184 3185 3187 3188 3190 3191 3192 3193 3194 3196 3197 3197 3198 3198 3199 3199 3199 3200 3201 3202 3202 3202
3128 3132 3136 3139 3142 3145 3149 3152 3155 3158 3160 3163 3166 3168 3171 3173 3174 3176 3179 3181 3183 3184 3186 3188 3190 3191 3193 3194 3195 3196 3197 3197 3199 3200 3200 3201 3201 3202 3202 3203 3203 3204 3204
3126 3130 3134 3137 3140 3144 3147 3151 3154 3157 3160 3163 3165 3168 3170 3173 3175 3177 3179 3181 3183 3185 3188 3189 3191 3193 3194 3195 3196 3197 3198 3199 3200 3201 3202 3203 3203 3204 3204 3205 3205 3206 3206
3124 3128 3131 3135 3139 3142 3145 3149 3152 3155 3159 3162 3165 3168 3170 3173 3175 3178 3179 3182 3184 3186 3188 3190 3192 3194 3195 3197 3198 3199 3200 3202 3201 3202 3203 3203 3204 3205 3206 3206 3207 3208 3208
3120 3124 3128 3133 3137 3140 3144 3147 3151 3154 3158 3161 3164 3167 3169 3172 3174 3177 3180 3182 3184 3186 3188 3189 3191 3193 3195 3197 3199 3200 3200 3202 3204 3205 3205 3205 3205 3206 3207 3207 3208 3208 3208
3116 3121 3125 3131 3135 3138 3142 3146 3150 3154 3156 3160 3162 3165 3168 3172 3175 3178 3180 3183 3184 3186 3188 3190 3192 3194 3195 3197 3197 3198 3200 3201 3202 3204 3205 3206 3206 3206 3207 3208 3209 3209 3210
3114 3118 3123 3128 3132 3136 3141 3144 3148 3152 3155 3158 3161 3165 3168 3172 3174 3177 3180 3182 3183 3185 3188 3190 3192 3194 3195 3196 3197 3197 3200 3203 3203 3203 3206 3207 3206 3206 3208 3207 3210 3210 3211
3107 3115 3120 3125 3129 3134 3139 3142 3146 3149 3153 3156 3161 3164 3167 3170 3173 3176 3178 3181 3184 3185 3187 3190 3192 3193 3195 3197 3198 3199 3201 3202 3203 3205 3206 3208 3207 3205 3206 3208 3210 3210 3211
3103 3109 3115 3121 3126 3131 3136 3140 3143 3147 3151 3156 3159 3163 3166 3169 3172 3175 3177 3180 3183 3185 3187 3189 3191 3193 3195 3197 3198 3200 3202 3203 3203 3205 3206 3207 3207 3208 3206 3206 3207 3207 3210
3098 3105 3111 3117 3123 3128 3133 3137 3141 3145 3149 3154 3157 3162 3165 3168 3171 3174 3177 3179 3182 3184 3186 3189 3191 3193 3195 3197 3199 3200 3201 3202 3204 3205 3207 3206 3206 3206 3207 3207 3207 3207 3208
3094 3100 3106 3112 3119 3124 3130 3135 3139 3143 3148 3151 3155 3159 3163 3167 3170 3173 3176 3179 3181 3184 3186 3189 3191 3194 3195 3197 3199 3200 3202 3203 3204 3205 3206 3207 3206 3208 3207 3208 3206 3207 3208
3089 3094 3100 3108 3114 3121 3126 3131 3137 3141 3145 3149 3153 3157 3161 3165 3168 3172 3175 3178 3181 3183 3185 3188 3191 3193 3195 3197 3199 3201 3203 3204 3205 3206 3207 3208 3208 3209 3208 3207 3209 3208 3209
3083 3090 3094 3102 3109 3116 3123 3128 3134 3138 3143 3147 3151 3155 3159 3162 3167 3170 3174 3177 3180 3182 3184 3187 3190 3193 3195 3197 3199 3201 3202 3204 3205 3206 3207 3208 3208 3209 3210 3209 3209 3209 3210
3076 3083 3089 3097 3104 3111 3118 3124 3129 3134 3139 3144 3149 3153 3157 3161 3165 3169 3173 3175 3179 3181 3184 3186 3189 3191 3194 3196 3198 3200 3201 3203 3205 3206 3208 3209 3209 3209 3212 3209 3212 3210 3212
3069 3077 3083 3089 3097 3106 3111 3118 3125 3130 3136 3141 3146 3151 3155 3159 3163 3167 3171 3174 3177 3180 3183 3185 3188 3190 3193 3194 3196 3198 3200 3202 3205 3206 3207 3209 3210 3212 3212 3211 3211 3212 3214
3062 3069 3076 3083 3091 3099 3107 3115 3122 3127 3132 3138 3142 3147 3151 3156 3161 3165 3169 3173 3176 3179 3182 3184 3187 3189 3191 3193 3195 3197 3198 3201 3202 3203 3205 3207 3208 3209 3210 3210 3211 3211 3212
3056 3063 3070 3077 3086 3095 3101 3108 3115 3122 3127 3132 3137 3142 3148 3152 3157 3162 3166 3170 3173 3177 3180 3183 3185 3187 3189 3191 3193 3195 3196 3197 3200 3202 3203 3205 3206 3207 3208 3208 3209 3209 3210
3051 3059 3066 3074 3082 3088 3095 3104 3111 3115 3121 3127 3135 3139 3144 3148 3152 3157 3162 3166 3170 3174 3177 3180 3182 3185 3187 3188 3190 3192 3193 3195 3196 3198 3200 3201 3203 3204 3205 3206 3206 3206 3206
3047 3054 3062 3070 3075 3081 3092 3098 3104 3110 3117 3124 3128 3134 3138 3143 3148 3153 3157 3162 3166 3169 3173 3176 3178 3181 3183 3185 3186 3188 3189 3190 3192 3194 3196 3198 3199 3201 3201 3202 3203 3203 3203
3040 3049 3056 3062 3068 3075 3084 3092 3097 3104 3110 3117 3122 3128 3133 3138 3143 3147 3152 3156 3161 3165 3169 3172 3174 3177 3179 3181 3182 3183 3184 3186 3188 3189 3191 3193 3194 3196 3197 3198 3199 3199 3199